Location: Marcé
(47.5801°N, 0.3280°W)
Time: 23:24:09
(UTC+02:00)

ACS3 Solar Sail - Pass Details

Date: 19 June 2024
Orbit: 992 x 1023 km, 97.4° (Epoch: 12 July)

Event Time Altitude Azimuth Distance (km) Brightness Sun altitude
Exits shadow 23:16:37 10° 160° (SSE) 2,740 6.5 -9.8°
Maximum altitude 23:22:46 79° 75° (ENE) 1,021 4.9 -10.4°
Drops below altitude 10° 23:29:00 10° 350° (N) 2,770 8.3 -11.0°
Sets 23:31:29 0° 349° (N) 3,722 9.2 -11.2°
